Weather History for Gillette, WY

Change the Weather History Date:

Tuesday, July 30, 2013

  Actual Average Record
Temperature  
Mean Temperature 69 °F 72 °F  
Max Temperature 82 °F 88 °F 102 °F (2006)
Min Temperature 56 °F 57 °F 40 °F (1950)
Degree Days  
Heating Degree Days 0 0  
Month to date heating degree days 0 14  
Since 1 June heating degree days 117 156  
Since 1 July heating degree days 0 14  
Cooling Degree Days 4 8  
Month to date cooling degree days 215 208  
Year to date cooling degree days 269 276  
Since 1 June cooling degree days 261 268  
Growing Degree Days 18 (Base 50)    
Moisture  
Dew Point 51 °F    
Average Humidity 59    
Maximum Humidity 87    
Minimum Humidity 30    
Precipitation  
Precipitation T in 0.05 in 0.40 in (1958)
Month to date precipitation 2.89 1.61  
Year to date precipitation 12.44 9.48  
Sea Level Pressure  
Sea Level Pressure 30.08 in    
Wind  
Wind Speed 9 mph (West)    
Max Wind Speed 22 mph    
Max Gust Speed 26 mph    
Visibility 10 miles    
Events Rain , Thunderstorm    
T = Trace of Precipitation, MM = Missing Value Source: NWS Daily Summary

Daily Weather History Graph

Daily Weather History Graph

Search for Another Location

Airport:

Trip Planner

Search our weather history database for the weather conditions in past years. The results will help you decide how hot, cold, wet, or windy it might be!

Date:

Astronomy

Jul. 30, 2013 Rise Set
Actual Time 5:47 AM MDT 8:28 PM MDT
Civil Twilight 5:14 AM MDT 9:02 PM MDT
Nautical Twilight 4:31 AM MDT 9:44 PM MDT
Astronomical Twilight 3:43 AM MDT 10:32 PM MDT
Moon 12:09 AM MDT (7/30) 2:50 PM MDT (7/30)
Length of Visible Light 15h 48m
Length of Day
14h 41m
Last Quarter, 40% of the Moon is Illuminated
Jul 30
Last Quarter
Aug 6
New
Aug 14
First Quarter
Aug 20
Full
Aug 28
Last Quarter

Hourly Weather History & Observations

Time (MDT) Temp. Dew Point Humidity Pressure Visibility Wind Dir Wind Speed Gust Speed Precip Events Conditions
12:53 AM 61.0 °F 54.0 °F 78% 30.01 in 10.0 mi South 5.8 mph - N/A   Clear
1:53 AM 61.0 °F 53.1 °F 75% 30.00 in 10.0 mi South 13.8 mph - N/A   Clear
2:53 AM 59.0 °F 53.1 °F 81% 29.99 in 10.0 mi SSW 12.7 mph - N/A   Clear
3:53 AM 61.0 °F 51.1 °F 70% 29.96 in 10.0 mi SSW 12.7 mph - N/A   Clear
4:53 AM 60.1 °F 52.0 °F 75% 29.99 in 10.0 mi SSW 11.5 mph - N/A   Clear
5:53 AM 55.9 °F 51.1 °F 84% 30.00 in 10.0 mi South 10.4 mph - N/A   Clear
6:53 AM 59.0 °F 51.1 °F 75% 30.00 in 10.0 mi South 12.7 mph - N/A   Clear
7:53 AM 66.0 °F 52.0 °F 60% 29.99 in 10.0 mi South 12.7 mph - N/A   Clear
8:53 AM 70.0 °F 54.0 °F 57% 29.99 in 10.0 mi SSW 9.2 mph - N/A   Clear
9:53 AM 72.0 °F 53.1 °F 51% 30.03 in 10.0 mi NW 12.7 mph - N/A   Clear
10:53 AM 73.9 °F 54.0 °F 50% 30.04 in 10.0 mi NNW 10.4 mph - N/A   Clear
11:53 AM - - N/A% 30.16 in - North - - N/A   Unknown
12:53 PM 79.0 °F 50.0 °F 36% 30.03 in 10.0 mi NNW 10.4 mph 20.7 mph N/A   Clear
1:53 PM 80.1 °F 48.9 °F 34% 30.02 in 10.0 mi North 9.2 mph 19.6 mph N/A   Clear
2:53 PM 78.1 °F 48.9 °F 36% 30.04 in 10.0 mi NNW 11.5 mph - N/A   Clear
3:38 PM 77.0 °F 48.2 °F 36% 30.17 in 10.0 mi NNW 13.8 mph - N/A Thunderstorm Scattered Clouds
3:53 PM 75.9 °F 48.0 °F 37% 30.07 in 10.0 mi WNW 11.5 mph - N/A Thunderstorm Thunderstorm
4:12 PM 73.4 °F 53.6 °F 50% 30.17 in 10.0 mi South 12.7 mph 18.4 mph 0.00 in Rain Light Rain
4:25 PM 75.2 °F 51.8 °F 44% 30.16 in 10.0 mi SE 10.4 mph - 0.00 in Thunderstorm Scattered Clouds
4:40 PM 75.2 °F 50.0 °F 41% 30.16 in 10.0 mi SSE 10.4 mph - 0.00 in   Clear
4:53 PM 75.9 °F 46.9 °F 36% 30.04 in 10.0 mi SSE 8.1 mph - 0.00 in   Clear
5:53 PM 80.1 °F 46.0 °F 30% 30.04 in 10.0 mi Calm Calm - N/A   Clear
6:53 PM 80.1 °F 46.9 °F 31% 30.05 in 10.0 mi Calm Calm - N/A   Mostly Cloudy
7:15 PM 77.0 °F 46.4 °F 34% 30.18 in 10.0 mi North 9.2 mph - N/A Thunderstorm Mostly Cloudy
7:30 PM 73.4 °F 48.2 °F 41% 30.19 in 10.0 mi North 16.1 mph 25.3 mph N/A   Mostly Cloudy
7:53 PM 69.1 °F 48.9 °F 49% 30.08 in 10.0 mi North 16.1 mph - N/A   Scattered Clouds
8:53 PM 61.0 °F 53.1 °F 75% 30.13 in 10.0 mi NW 5.8 mph - N/A   Partly Cloudy
9:53 PM 61.0 °F 54.0 °F 78% 30.16 in 10.0 mi West 3.5 mph - 0.00 in   Overcast
10:53 PM 60.1 °F 52.0 °F 75% 30.17 in 10.0 mi NW 5.8 mph - N/A   Partly Cloudy
11:53 PM 59.0 °F 55.0 °F 87% 30.33 in 10.0 mi NNE 4.6 mph - 0.00 in   Overcast